BEL4PA EBBR-EDDK

Flight info

Callsign BEL4PA
Flight time 0h 31m
Altitude 17000
Route LNO DCT DENOV DCT NVO
Aircraft A320/M-SDE3FGHIRWY/LB1

Departure

Time 2026-04-26 12:41
Airport Brussels Airport (EBBR)

Arrival

Time 2026-04-26 13:13
Airport Cologne Bonn Airport (EDDK)
Time Latitude Longitude Altitude Speed Heading
2026-04-26 12:10 50.90392 4.48538 136 ft 0 kts 155°
2026-04-26 12:29 50.90395 4.48536 117 ft 3 kts 155°
2026-04-26 12:29 50.90443 4.48495 118 ft 4 kts 143°
2026-04-26 12:30 50.90461 4.48467 117 ft 4 kts 109°
2026-04-26 12:30 50.90463 4.48445 116 ft 0 kts 65°
2026-04-26 12:33 50.90476 4.48491 119 ft 12 kts 65°
2026-04-26 12:33 50.90530 4.48674 119 ft 21 kts 65°
2026-04-26 12:33 50.90592 4.48888 119 ft 18 kts 65°
2026-04-26 12:33 50.90628 4.49014 117 ft 12 kts 65°
2026-04-26 12:34 50.90638 4.49134 119 ft 0 kts 131°
2026-04-26 12:34 50.90634 4.49138 120 ft 3 kts 137°
2026-04-26 12:34 50.90612 4.49159 122 ft 4 kts 155°
2026-04-26 12:34 50.90523 4.49224 122 ft 20 kts 154°
2026-04-26 12:35 50.90398 4.49314 121 ft 15 kts 154°
2026-04-26 12:35 50.90351 4.49404 121 ft 10 kts 79°
2026-04-26 12:35 50.90360 4.49511 121 ft 10 kts 123°
2026-04-26 12:35 50.90326 4.49535 125 ft 2 kts 173°
2026-04-26 12:36 50.90290 4.49524 121 ft 6 kts 195°
2026-04-26 12:36 50.90228 4.49499 127 ft 15 kts 194°
2026-04-26 12:36 50.90129 4.49459 127 ft 13 kts 194°
2026-04-26 12:36 50.90035 4.49421 131 ft 18 kts 194°
2026-04-26 12:37 50.89917 4.49377 136 ft 15 kts 196°
2026-04-26 12:37 50.89837 4.49341 140 ft 9 kts 196°
2026-04-26 12:37 50.89786 4.49318 144 ft 9 kts 195°
2026-04-26 12:37 50.89680 4.49277 150 ft 22 kts 193°
2026-04-26 12:38 50.89582 4.49200 156 ft 10 kts 206°
2026-04-26 12:38 50.89531 4.49172 159 ft 5 kts 194°
2026-04-26 12:38 50.89499 4.49161 160 ft 7 kts 192°
2026-04-26 12:38 50.89411 4.49127 164 ft 19 kts 193°
2026-04-26 12:39 50.89286 4.49080 169 ft 17 kts 201°
2026-04-26 12:39 50.89201 4.49043 175 ft 9 kts 188°
2026-04-26 12:39 50.89158 4.49096 176 ft 8 kts 106°
2026-04-26 12:39 50.89166 4.49175 176 ft 0 kts 71°
2026-04-26 12:40 50.89167 4.49181 176 ft 4 kts 71°
2026-04-26 12:40 50.89260 4.49579 176 ft 77 kts 70°
2026-04-26 12:41 50.89521 4.50709 175 ft 139 kts 70°
2026-04-26 12:41 50.89901 4.52293 454 ft 163 kts 68°
2026-04-26 12:41 50.90352 4.53985 1142 ft 169 kts 63°
2026-04-26 12:41 50.90891 4.55693 2012 ft 173 kts 61°
2026-04-26 12:42 50.91465 4.57385 2844 ft 182 kts 60°
2026-04-26 12:42 50.92074 4.59227 3413 ft 197 kts 62°
2026-04-26 12:42 50.92722 4.61255 3942 ft 217 kts 62°
2026-04-26 12:42 50.93451 4.63491 4409 ft 240 kts 63°
2026-04-26 12:43 50.94111 4.66068 4985 ft 261 kts 70°
2026-04-26 12:43 50.94684 4.68860 5851 ft 269 kts 72°
2026-04-26 12:43 50.95222 4.71729 6814 ft 274 kts 74°
2026-04-26 12:43 50.95453 4.74750 7683 ft 280 kts 92°
2026-04-26 12:44 50.95019 4.77784 8560 ft 286 kts 112°
2026-04-26 12:44 50.93937 4.80467 9457 ft 292 kts 133°
2026-04-26 12:44 50.92394 4.82608 10323 ft 297 kts 140°
2026-04-26 12:44 50.90737 4.84728 10787 ft 318 kts 144°
2026-04-26 12:45 50.88831 4.86773 11077 ft 342 kts 142°
2026-04-26 12:45 50.87293 4.89744 11411 ft 359 kts 114°
2026-04-26 12:45 50.86584 4.93512 12044 ft 366 kts 102°
2026-04-26 12:45 50.85972 4.97495 12791 ft 371 kts 103°
2026-04-26 12:46 50.85327 5.01475 13537 ft 376 kts 104°
2026-04-26 12:46 50.84651 5.05434 14246 ft 380 kts 104°
2026-04-26 12:46 50.83937 5.09488 14882 ft 385 kts 105°
2026-04-26 12:46 50.83205 5.13583 15520 ft 389 kts 105°
2026-04-26 12:47 50.82463 5.17715 16173 ft 393 kts 105°
2026-04-26 12:47 50.81716 5.21892 16810 ft 397 kts 105°
2026-04-26 12:47 50.80959 5.26108 17195 ft 400 kts 105°
2026-04-26 12:47 50.80196 5.30363 17292 ft 410 kts 105°
2026-04-26 12:48 50.79401 5.34802 17303 ft 428 kts 105°
2026-04-26 12:48 50.78590 5.39351 17303 ft 433 kts 105°
2026-04-26 12:48 50.78046 5.42392 17303 ft 434 kts 105°
2026-04-26 12:48 50.77223 5.46987 17302 ft 435 kts 105°
2026-04-26 12:49 50.76398 5.51582 17298 ft 435 kts 105°
2026-04-26 12:49 50.75567 5.56176 17299 ft 435 kts 106°
2026-04-26 12:49 50.74732 5.60770 17301 ft 435 kts 106°
2026-04-26 12:49 50.73895 5.65371 17301 ft 435 kts 106°
2026-04-26 12:50 50.73058 5.69974 17298 ft 435 kts 106°
2026-04-26 12:50 50.72220 5.74565 17298 ft 436 kts 106°
2026-04-26 12:50 50.71378 5.79157 17298 ft 436 kts 106°
2026-04-26 12:50 50.70536 5.83736 17301 ft 436 kts 106°
2026-04-26 12:51 50.69693 5.88324 17299 ft 435 kts 106°
2026-04-26 12:51 50.68846 5.92920 17297 ft 435 kts 106°
2026-04-26 12:51 50.67999 5.97501 17294 ft 435 kts 106°
2026-04-26 12:51 50.67159 6.02021 17295 ft 436 kts 106°
2026-04-26 12:52 50.66304 6.06600 17295 ft 435 kts 106°
2026-04-26 12:52 50.65497 6.11195 17290 ft 435 kts 101°
2026-04-26 12:52 50.65154 6.15912 17289 ft 434 kts 90°
2026-04-26 12:52 50.65390 6.20643 17287 ft 433 kts 79°
2026-04-26 12:53 50.66182 6.25208 17280 ft 432 kts 68°
2026-04-26 12:53 50.67495 6.29444 17279 ft 430 kts 57°
2026-04-26 12:53 50.69167 6.33343 17287 ft 429 kts 54°
2026-04-26 12:53 50.70860 6.37223 17290 ft 429 kts 54°
2026-04-26 12:54 50.72549 6.41107 17292 ft 429 kts 54°
2026-04-26 12:54 50.74229 6.45001 17295 ft 429 kts 56°
2026-04-26 12:54 50.75527 6.49243 17292 ft 431 kts 72°
2026-04-26 12:54 50.76053 6.53898 17295 ft 432 kts 87°
2026-04-26 12:55 50.75779 6.58616 17295 ft 433 kts 103°
2026-04-26 12:55 50.74708 6.63051 17291 ft 432 kts 119°
2026-04-26 12:55 50.72912 6.66836 17288 ft 432 kts 136°
2026-04-26 12:55 50.70540 6.69705 17280 ft 430 kts 152°
2026-04-26 12:56 50.67794 6.71529 17283 ft 428 kts 162°
2026-04-26 12:56 50.65098 6.73521 17273 ft 430 kts 145°
2026-04-26 12:56 50.63018 6.76889 17261 ft 432 kts 123°
2026-04-26 12:56 50.61886 6.81232 17263 ft 431 kts 100°
2026-04-26 12:57 50.61866 6.85910 17259 ft 428 kts 78°
2026-04-26 12:57 50.62937 6.90174 17262 ft 425 kts 56°
2026-04-26 12:57 50.64848 6.93696 17259 ft 423 kts 45°
2026-04-26 12:58 50.68413 7.00932 16931 ft 409 kts 61°
2026-04-26 12:58 50.69338 7.05099 16677 ft 399 kts 77°
2026-04-26 12:58 50.69631 7.09400 16424 ft 389 kts 88°
2026-04-26 12:58 50.69427 7.13601 16168 ft 380 kts 99°
2026-04-26 12:59 50.68690 7.17551 15919 ft 372 kts 113°
2026-04-26 12:59 50.67413 7.21047 15668 ft 364 kts 128°
2026-04-26 12:59 50.65714 7.23868 15419 ft 356 kts 138°
2026-04-26 12:59 50.63894 7.26457 15172 ft 349 kts 138°
2026-04-26 13:00 50.62111 7.28996 14930 ft 342 kts 138°
2026-04-26 13:00 50.60341 7.31523 14678 ft 336 kts 138°
2026-04-26 13:00 50.58652 7.33940 14496 ft 328 kts 138°
2026-04-26 13:00 50.57006 7.36295 14359 ft 310 kts 138°
2026-04-26 13:01 50.55457 7.38507 14236 ft 292 kts 138°
2026-04-26 13:01 50.53962 7.40640 13550 ft 295 kts 138°
2026-04-26 13:01 50.52403 7.42867 12491 ft 311 kts 137°
2026-04-26 13:01 50.50800 7.45154 11838 ft 309 kts 137°
2026-04-26 13:02 50.49217 7.47408 11249 ft 306 kts 137°
2026-04-26 13:02 50.47648 7.49644 10644 ft 303 kts 137°
2026-04-26 13:02 50.46228 7.52059 10042 ft 298 kts 118°
2026-04-26 13:02 50.45635 7.55086 9431 ft 289 kts 88°
2026-04-26 13:03 50.46029 7.58088 8765 ft 279 kts 60°
2026-04-26 13:03 50.47183 7.60477 8156 ft 277 kts 45°
2026-04-26 13:03 50.48471 7.62669 7821 ft 275 kts 42°
2026-04-26 13:03 50.50076 7.64166 7457 ft 268 kts 12°
2026-04-26 13:04 50.51902 7.64102 7107 ft 263 kts 340°
2026-04-26 13:04 50.53434 7.62597 6694 ft 262 kts 317°
2026-04-26 13:04 50.54776 7.60647 6217 ft 264 kts 317°
2026-04-26 13:04 50.56137 7.58698 5836 ft 263 kts 318°
2026-04-26 13:05 50.57483 7.56783 5489 ft 262 kts 318°
2026-04-26 13:05 50.58840 7.54853 5135 ft 261 kts 318°
2026-04-26 13:05 50.60191 7.52924 4790 ft 261 kts 318°
2026-04-26 13:05 50.61520 7.51027 4399 ft 260 kts 318°
2026-04-26 13:06 50.62860 7.49116 3980 ft 260 kts 318°
2026-04-26 13:06 50.64203 7.47200 3560 ft 259 kts 318°
2026-04-26 13:06 50.65543 7.45285 3178 ft 258 kts 318°
2026-04-26 13:06 50.66843 7.43427 3006 ft 250 kts 317°
2026-04-26 13:07 50.68089 7.41644 2986 ft 233 kts 318°
2026-04-26 13:07 50.69245 7.39989 3000 ft 217 kts 318°
2026-04-26 13:07 50.70359 7.38394 2998 ft 214 kts 318°
2026-04-26 13:07 50.71460 7.36815 2993 ft 213 kts 318°
2026-04-26 13:08 50.72550 7.35252 3006 ft 215 kts 317°
2026-04-26 13:08 50.73641 7.33688 3002 ft 206 kts 317°
2026-04-26 13:08 50.74658 7.32225 3022 ft 186 kts 318°
2026-04-26 13:08 50.75551 7.30942 2927 ft 166 kts 319°
2026-04-26 13:09 50.76383 7.29745 2764 ft 156 kts 318°
2026-04-26 13:09 50.77185 7.28593 2578 ft 154 kts 319°
2026-04-26 13:09 50.77982 7.27443 2356 ft 153 kts 319°
2026-04-26 13:09 50.78748 7.26342 2153 ft 148 kts 318°
2026-04-26 13:10 50.79493 7.25268 2000 ft 143 kts 319°
2026-04-26 13:10 50.80219 7.24222 1777 ft 139 kts 318°
2026-04-26 13:10 50.80929 7.23198 1593 ft 137 kts 318°
2026-04-26 13:10 50.81626 7.22193 1408 ft 136 kts 318°
2026-04-26 13:11 50.82328 7.21181 1197 ft 136 kts 318°
2026-04-26 13:11 50.83031 7.20173 1021 ft 137 kts 317°
2026-04-26 13:11 50.83734 7.19143 813 ft 138 kts 319°
2026-04-26 13:11 50.84450 7.18117 643 ft 139 kts 318°
2026-04-26 13:12 50.85173 7.17071 456 ft 141 kts 317°
2026-04-26 13:12 50.85890 7.16026 304 ft 136 kts 317°
2026-04-26 13:12 50.86497 7.15155 280 ft 98 kts 318°
2026-04-26 13:12 50.86827 7.14650 264 ft 52 kts 304°
2026-04-26 13:13 50.86893 7.14278 257 ft 10 kts 281°
2026-04-26 13:13 50.86912 7.14132 255 ft 17 kts 287°
2026-04-26 13:13 50.87015 7.13945 246 ft 31 kts 318°
2026-04-26 13:13 50.87209 7.13668 238 ft 42 kts 317°
2026-04-26 13:14 50.87432 7.13343 233 ft 44 kts 317°
2026-04-26 13:14 50.87654 7.13023 233 ft 43 kts 317°
2026-04-26 13:14 50.87788 7.12784 232 ft 22 kts 276°
2026-04-26 13:14 50.87862 7.12611 232 ft 21 kts 352°
2026-04-26 13:15 50.87983 7.12516 232 ft 20 kts 315°
2026-04-26 13:15 50.88083 7.12352 232 ft 21 kts 312°
2026-04-26 13:15 50.88183 7.12185 232 ft 21 kts 308°
2026-04-26 13:15 50.88272 7.11994 232 ft 22 kts 306°
2026-04-26 13:16 50.88324 7.11987 232 ft 7 kts 37°
2026-04-26 13:16 50.88349 7.12017 232 ft 0 kts 36°